TIME,DELAY(SENSOR),PRES,T(CTD),SAL,OXYGEN,RAWTEMP,T(OPTODE),TCPHASE,FLUOR,BETA(BETA700),BETA(BETA412),BETA(BETA440),CDOM,C(CSC),ED(ED412.40),ED(ED444.00),ED(ED489.70),ED(ED554.30),LU(LU411.80),LU(LU443.40),LU(LU489.60),LU(LU554.10),COMP,TILTX,TILTX(TILTY),CHECK
1345325368,5810,497.1199951171875000,6.5536999702453610,34.2131004333496100,55.5306282043457000,601.5952148437500000,6.5327239036560060,52.0438919067382800,53,105,91,80,80,15324,2147754624,2147422080,2148005394,2147871808,2147628827,2147079625,2148246555,2147199954,1693,4,13,39351
1345325491,5806,486.8800048828125000,6.5661997795104980,34.1876983642578100,62.0557899475097660,601.3718872070312000,6.5399398803710940,51.1613693237304700,53,104,90,80,81,15325,2147749056,2147418934,2148003245,2147872603,2147630692,2147073435,2148249444,2147200978,1325,4,13,52680
1345325634,5811,475.4200134277344000,6.7045001983642580,34.1705017089843750,71.3523483276367200,596.8311157226562000,6.6865839958190920,49.9074287414550800,52,104,88,81,81,15323,2147752859,2147417600,2148004937,2147872301,2147631789,2147077440,2148241810,2147200265,517,4,12,24086
1345325779,5808,464.7399902343750000,6.7783999443054200,34.1615982055664060,74.8339767456054700,595.0817871093750000,6.7430248260498050,49.4562187194824200,52,105,86,80,80,15324,2147748562,2147418624,2148004105,2147872301,2147631314,2147074688,2148243099,2147202358,3290,4,13,48271
1345325944,5805,453.7399902343750000,6.8825001716613770,34.1534004211425800,80.3025512695312500,591.4910888671875000,6.8587908744812010,48.7476806640625000,51,105,89,79,79,15325,2147746404,2147420662,2148002550,2147871872,2147630573,2147079277,2148238729,2147201453,2945,4,13,47771
1345326112,5809,441.9500122070312500,7.0315999984741210,34.1338005065918000,90.4140930175781200,586.8010864257812000,7.0098152160644530,47.5245780944824200,51,103,89,79,79,15325,2147748352,2147420150,2148003044,2147874432,2147629632,2147082944,2148238820,2147202139,2626,4,13,40575
1345326233,5804,431.7500000000000000,7.2557001113891600,34.1268005371093750,97.8508529663086000,579.8463134765625000,7.2334017753601070,46.6066093444824200,51,106,89,81,79,15325,2147748160,2147421001,2148003629,2147873014,2147626066,2147082614,2148238107,2147203794,2309,4,13,23704
1345326367,5811,420.3699951171875000,7.4591999053955080,34.1264991760253900,103.8527984619140600,573.0385742187500000,7.4518361091613770,45.8685188293457000,51,106,90,81,79,15322,2147748708,2147420059,2148003446,2147872594,2147625142,2147080612,2148234194,2147203154,2567,4,13,30477
1345326488,5810,409.6600036621094000,7.5981001853942870,34.1011009216308600,116.4367980957031200,569.1533203125000000,7.5763168334960940,44.5448188781738300,51,106,90,81,78,15324,2147744201,2147419913,2148002048,2147872448,2147629412,2147084909,2148235739,2147201042,2695,4,13,42141
1345326609,5807,398.5400085449219000,7.8031001091003420,34.0871009826660160,127.2734985351562500,562.6323852539062000,7.7849431037902830,43.4155082702636700,50,107,89,81,76,15326,2147745965,2147422445,2148001380,2147872978,2147625856,2147081280,2148233581,2147200740,2250,4,13,30025
1345326732,5808,386.8099975585937500,8.0599002838134770,34.0917015075683600,134.4600982666015600,554.1574707031250000,8.0555419921875000,42.6257705688476560,50,103,88,81,76,15328,2147748260,2147421110,2148003620,2147873545,2147622848,2147088310,2148237330,2147200493,1536,4,13,3319
1345326842,5811,376.1000061035156000,8.4224996566772460,34.1011009216308600,141.9577941894531200,543.0327148437500000,8.4098396301269530,41.7868614196777340,51,106,90,80,76,15327,2147743003,2147422848,2148003830,2147872246,2147622875,2147083766,2148230528,2147201344,1105,4,13,29637
1345326952,5806,365.6799926757812500,8.8951997756958000,34.1170997619628900,151.5254974365234400,527.9788208007812000,8.8876895904541020,40.7353286743164060,50,106,89,81,75,15324,2147743168,2147420836,2148007954,2147873517,2147620068,2147094710,2148235163,2147201243,610,4,13,57997
1345327086,5809,354.0400085449219000,9.1152000427246100,34.1239013671875000,160.4409942626953000,520.8521728515625000,9.1132926940917970,39.9110488891601560,50,107,90,81,75,15321,2147740141,2147421851,2148009993,2147872768,2147621074,2147096832,2148230080,2147202779,1293,4,13,3156
1345327218,5807,343.3399963378906000,9.4736003875732420,34.1253013610839840,168.6665039062500000,510.1828918457031000,9.4503393173217770,39.1098213195800800,50,105,90,80,73,15324,2147741796,2147424804,2148011218,2147872448,2147617810,2147095616,2148230107,2147203273,1883,4,13,37488
1345327374,5805,332.8299865722656000,9.7477998733520500,34.1357994079589840,178.0682983398437500,501.2244873046875000,9.7327041625976560,38.2849998474121100,50,107,88,79,73,15323,2147741284,2147423972,2148014875,2147872036,2147616429,2147097600,2148231533,2147203364,792,4,13,26148
1345327550,5807,322.2699890136719000,10.1420001983642580,34.1464004516601560,184.2523040771484400,488.7416992187500000,10.1252202987670900,37.6492118835449200,49,105,91,82,73,15324,2147735360,2147423725,2148017289,2147872192,2147613156,2147101760,2148230326,2147204690,259,4,13,47929
1345327718,5806,310.5700073242187500,10.4511003494262700,34.1543006896972660,186.9118041992187500,476.9945983886719000,10.4936504364013670,37.2739906311035160,50,106,88,81,73,15324,2147737984,2147426212,2148027529,2147870217,2147612178,2147111396,2148233033,2147201526,124,4,13,36060
1345327850,5811,300.0000000000000000,10.9605998992919920,34.1594009399414060,210.5820007324218800,462.1477050781250000,10.9580602645874020,35.5586585998535160,48,103,92,80,70,15329,2147736365,2147429211,2148035017,2147870016,2147610221,2147114413,2148233033,2147207360,931,4,13,59747
1345327996,5810,286.9899902343750000,11.4757003784179690,34.1907005310058600,226.6829071044922000,444.4465026855469000,11.5100202560424800,34.3766517639160160,48,102,90,80,69,15331,2147733494,2147434221,2148053046,2147872265,2147607725,2147115849,2148241024,2147207314,3055,4,13,3610
1345328106,5808,275.2999877929687500,11.9757003784179690,34.2196998596191400,231.6311035156250000,427.6134033203125000,12.0333099365234380,33.8504905700683600,48,103,87,80,68,15328,2147733202,2147442349,2148072978,2147871478,2147606738,2147129828,2148250450,2147206509,38,4,13,25083
1345328216,5809,263.7200012207031000,12.4840002059936520,34.2569999694824200,235.5809936523437500,413.4870910644531000,12.4713296890258790,33.4285888671875000,49,104,84,80,69,15326,2147733595,2147450148,2148100306,2147871588,2147603062,2147141696,2148264722,2147210304,96,4,13,17728
1345328334,5807,252.7100067138672000,12.7611999511718750,34.2625999450683600,225.3318939208984400,404.5480041503906000,12.7480201721191400,33.8224601745605500,48,107,86,80,68,15324,2147727789,2147465600,2148140790,2147868836,2147597449,2147147035,2148283657,2147214290,2587,4,13,3691
1345328477,5810,242.1799926757812500,12.8192996978759770,34.2447013854980500,222.2055969238281200,401.5773925781250000,12.8398895263671880,33.9438514709472660,48,102,88,79,69,15325,2147730294,2147483364,2148191222,2147872640,2147600740,2147159232,2148306011,2147214491,1260,3,14,25531
1345328651,5807,230.3099975585937500,13.7299003601074220,34.2910995483398440,216.8540954589843800,370.3497009277344000,13.8033800125122070,33.7589607238769500,49,104,90,80,69,15325,2147733101,2147519798,2148277065,2147871945,2147601115,2147189924,2148340882,2147217782,3419,4,14,51108
1345328794,5809,219.4900054931640600,14.9278001785278320,34.3693008422851560,218.6766967773437500,333.8757934570312500,14.9243202209472660,33.1140785217285160,49,107,86,82,68,15321,2147735040,2147566774,2148377828,2147873024,2147597906,2147215442,2148386422,2147223634,236,4,13,28945
1345328950,5808,206.3000030517578000,15.7652997970581050,34.4570007324218750,215.7590026855468800,306.8638916015625000,15.7520999908447270,32.8783683776855500,49,101,89,79,67,15318,2147751469,2147657801,2148570779,2147871789,2147596160,2147272173,2148476553,2147228141,2264,3,14,6931
1345329038,5807,197.3399963378906200,16.2474994659423830,34.5222015380859400,214.6529998779297000,290.9576110839844000,16.2388305664062500,32.7092285156250000,48,103,88,79,67,15319,2147771885,2147748900,2148754870,2147872548,2147604571,2147329691,2148563218,2147236489,2263,4,14,22912
1345329093,5811,191.7599945068359400,16.6933994293212900,34.5824012756347660,212.9328002929687500,272.8037109375000000,16.7938594818115230,32.5440406799316400,49,103,92,80,65,15316,2147790034,2147823515,2148895707,2147874011,2147614683,2147378587,2148634322,2147243785,2116,2,14,61258
1345329148,5807,186.6600036621093800,17.5713996887207030,34.6910018920898440,213.3547058105468800,248.7209930419922000,17.5296096801757800,32.1806793212890600,50,104,90,81,66,15313,2147818624,2147911424,2149062820,2147876288,2147620233,2147430098,2148712896,2147247936,1570,3,13,64473
1345329222,5808,180.3999938964843800,17.8281993865966800,34.7456016540527340,216.7162017822265600,239.2787933349609400,17.8179798126220700,31.8669795989990230,50,103,90,80,65,15310,2147861156,2148058413,2149327926,2147875392,2147635026,2147524891,2148840768,2147259648,954,3,14,63625
1345329277,5809,176.0299987792968800,18.0345993041992200,34.7743988037109400,217.4723052978515600,232.4645996093750000,18.0260791778564450,31.7321395874023440,54,102,90,82,65,15308,2147899666,2148157430,2149504758,2147878802,2147649810,2147590893,2148916617,2147264777,39,3,13,48079
1345329332,5810,171.8000030517578000,18.1259002685546880,34.7892990112304700,218.4143981933593800,227.9062957763672000,18.1652793884277340,31.6190605163574220,52,105,89,80,65,15308,2147758482,2147576585,2148261421,2147876059,2147590692,2147255826,2148313097,2147225106,3491,3,14,12050
1345329387,5808,167.5500030517578000,18.5813999176025400,34.8496017456054700,217.8932952880859400,215.6746063232422000,18.5388202667236330,31.4783496856689450,54,108,90,81,65,15306,2147787803,2147665481,2148425252,2147875702,2147602733,2147309805,2148397238,2147231890,583,4,14,36428
1345329442,5810,163.5200042724609400,18.6868000030517580,34.8722000122070300,218.9082946777343800,210.7754974365234400,18.6884403228759770,31.3580398559570300,55,106,88,81,65,15299,2148138733,2148761901,2150529289,2147883629,2147748260,2147953590,2149424640,2147303853,1277,3,15,10058
1345329497,5805,159.4600067138672000,19.0923004150390620,34.9189987182617200,218.7171936035156200,197.0673980712890600,19.1071701049804700,31.1816501617431640,56,109,87,79,63,15302,2147923958,2148018642,2149042569,2147877961,2147659181,2147531611,2148714057,2147257728,1352,3,14,59398
1345329575,5810,154.3899993896484400,19.4778003692626950,34.9716987609863300,219.0556030273437500,183.8719940185547000,19.5103893280029300,30.9856891632080080,61,109,89,81,66,15299,2147904566,2147935158,2148856521,2147876260,2147653394,2147488932,2148614089,2147248073,3540,3,15,48992
1345329641,5810,150.5299987792968800,20.0130996704101560,35.0461006164550800,219.9821929931640600,171.0881958007812500,19.9012298583984380,30.7658901214599600,64,112,88,81,63,15291,2147876617,2147820105,2148623195,2147870985,2147639881,2147411264,2148484809,2147239926,2862,3,15,46058
1345329718,5808,146.1900024414062500,20.1844997406005860,35.0994987487793000,222.3414001464843800,163.6564941406250000,20.1285495758056640,30.5463104248046880,63,110,90,81,64,15292,2147928868,2147926253,2148795026,2147876644,2147665371,2147479963,2148572909,2147245138,3389,3,15,17704
1345329784,5808,142.3399963378906200,20.2917003631591800,35.1200981140136700,224.3059997558593800,158.7460021972656200,20.2787990570068360,30.3819503784179700,64,112,93,83,64,15285,2148023661,2148119817,2149118134,2147876809,2147709001,2147614080,2148736704,2147258240,687,3,15,19344
1345329850,5806,138.4900054931640600,20.4722995758056640,35.1413002014160160,225.4196014404297000,153.2955932617187500,20.4456195831298830,30.2540397644042970,65,114,92,81,62,15280,2148233764,2148546349,2149830061,2147883520,2147812562,2147896228,2149135963,2147286281,1032,3,15,3270
1345329929,5809,134.4700012207031200,20.7625007629394530,35.1813011169433600,226.6398925781250000,143.5756988525390600,20.7432594299316400,30.0656890869140620,72,114,90,83,61,15272,2148278976,2148601362,2149897517,2147888320,2147836461,2147932562,2149155410,2147287972,1471,3,15,52406
1345330017,5808,130.7500000000000000,20.8873996734619140,35.1983985900878900,227.3477020263672000,139.2823028564453000,20.8747997283935550,29.9745597839355470,78,114,91,83,62,15270,2148831268,2149644150,2151606354,2147905581,2148117787,2148625014,2150063067,2147357869,1530,2,15,41928
1345330116,5806,126.7600021362304700,21.0564994812011720,35.2120018005371100,227.8733978271484400,134.6788024902343800,21.0158901214599600,29.8888301849365230,83,118,89,83,62,15264,2150120338,2152109485,2155802185,2147967058,2148747053,2150107913,2152071661,2147508571,1113,3,15,51915
1345330228,5806,122.8199996948242200,21.2903995513916000,35.2415008544921900,229.3905029296875000,126.0225982666015600,21.2813301086425780,29.7024192810058600,95,118,91,83,62,15253,2150440658,2152483922,2156293120,2147984896,2148894336,2150260699,2152220635,2147522102,599,2,15,5601
1345330338,5809,118.9700012207031200,21.4104995727539060,35.2400016784668000,231.3381958007812500,122.3332977294921900,21.3945198059082030,29.5608406066894530,109,124,88,83,63,15231,2151118976,2153504192,2157816548,2148025280,2149215360,2150791442,2152875090,2147580242,3449,2,16,36586
1345330459,5807,115.0699996948242200,21.4923992156982420,35.2481002807617200,233.0377044677734400,119.5436019897461000,21.4801292419433600,29.4437198638916000,118,121,90,84,61,15218,2152013787,2154838985,2159717220,2148075081,2149607314,2151372964,2153582930,2147644580,2392,2,15,17668
1345330578,5808,110.5699996948242200,21.5872001647949220,35.2545013427734400,235.2532958984375000,116.4046020507812500,21.5764904022216800,29.2988090515136720,121,124,89,83,62,15199,2153478262,2156883318,2162450688,2148152274,2150229760,2152238656,2154597494,2147742765,2194,2,15,2247
1345330666,5808,106.5599975585937500,21.6898994445800780,35.2641983032226560,237.4629058837890600,112.9654006958007800,21.6821002960205080,29.1516609191894530,141,127,88,83,62,15182,2155039314,2159006144,2165082075,2148240466,2150865792,2153039936,2155490806,2147839817,1912,2,15,16004
1345330754,5809,102.4199981689453100,21.7441997528076170,35.2705993652343750,239.0630035400390600,111.0578002929687500,21.7406902313232420,29.0535602569580080,144,128,89,83,60,15165,2157342217,2162138642,2168891053,2148381696,2151785728,2154210614,2156774052,2147978724,1742,3,15,9780
1345330834,5806,98.5800018310546900,21.8316001892089840,35.2825012207031250,240.6154937744140600,108.6472015380859400,21.8147506713867200,28.9516296386718750,146,131,93,83,60,15144,2160082505,2165831753,2173179648,2148543972,2152881435,2155610614,2158300269,2148153206,1985,3,15,59214
1345330889,5808,95.8899993896484400,21.9162998199462900,35.2965011596679700,241.2624969482422000,105.5783004760742200,21.9090595245361330,28.8832206726074220,160,136,93,83,62,15129,2162977856,2169777234,2177789814,2148712274,2153993344,2157051456,2159902226,2148319222,2506,2,16,26343
1345330944,5809,93.1800003051757800,21.9801998138427730,35.2995986938476560,241.7454986572265600,102.1855010986328100,22.0133590698242200,28.8183708190917970,153,130,92,85,62,15126,2160532461,2165552786,2171086930,2148517202,2153080859,2155353965,2157654134,2148120466,3420,2,15,43678
1345330999,5810,90.6200027465820300,22.1035995483398440,35.3054008483886700,243.5121002197265600,100.1423034667968800,22.0761795043945300,28.7129096984863280,123,130,92,84,62,15146,2159072676,2163018048,2167040082,2148425472,2152403803,2154044909,2155829924,2147962102,615,3,15,63961
1345331054,5806,88.2699966430664000,22.1450004577636720,35.3061981201171900,244.7164001464843800,98.2197113037109400,22.1353092193603500,28.6350193023681640,112,126,90,85,60,15156,2155462070,2157499254,2159542482,2148208640,2150920978,2151693092,2152924086,2147692909,1398,2,15,14750
1345331109,5810,86.1200027465820300,22.1681995391845700,35.3065986633300800,245.9071044921875000,97.2118530273437500,22.1663208007812500,28.5691204071044920,102,124,92,86,62,15166,2157043913,2159411355,2161518464,2148278921,2151815396,2152876480,2154186020,2147809810,1153,2,16,16159
1345331166,5808,84.0999984741211000,22.2213993072509770,35.3031997680664060,246.6338958740234400,95.5523300170898400,22.2173690795898440,28.5162906646728500,103,128,93,85,59,15165,2177092196,2187563474,2196322148,2149741101,2160510509,2165300105,2168017792,2149249746,1031,2,16,61479
1345331232,5808,82.1999969482421900,22.2497005462646500,35.2957000732421900,247.4454040527343800,94.6100463867187500,22.2463703155517580,28.4686393737792970,94,133,93,85,61,15167,2179593380,2190131648,2198257289,2149928758,2161969078,2167025517,2169420763,2149407332,1071,2,15,32579
1345331309,5809,80.4599990844726600,22.4433002471923830,35.3022003173828100,248.2259979248047000,89.4357910156250000,22.4056301116943360,28.3695201873779300,84,126,92,85,59,15172,2183745645,2195115364,2203500717,2150310784,2164188644,2169873737,2171988589,2149707821,1093,3,16,19607
1345331452,5809,78.7799987792968800,22.5881996154785160,35.2980995178222660,249.6100006103515600,83.9259567260742200,22.5753402709960940,28.2402191162109380,82,134,94,85,58,15172,2186295131,2197579172,2205168530,2150476196,2166099465,2172094016,2173698221,2149881590,2018,2,16,27170
1345331574,5810,75.6699981689453100,22.6222991943359380,35.2893981933593750,251.0460052490234400,82.3717727661132800,22.6232299804687500,28.1587791442871100,78,130,95,86,58,15163,2193701997,2205306221,2212440521,2151217700,2170442313,2177243931,2177951259,2150358729,2914,2,16,18943
1345331629,5808,73.3499984741211000,22.7075004577636720,35.2818984985351560,251.4723052978515600,79.6490173339843800,22.7071495056152340,28.1067695617675780,76,126,92,87,61,15161,2199523062,2211534957,2218458139,2151811821,2173795099,2181229961,2181335990,2150753590,2990,2,16,17461
1345331684,5807,71.1200027465820300,22.7411003112792970,35.2724990844726560,252.0630035400390600,78.5340499877929700,22.7415199279785160,28.0674991607666000,76,133,92,87,59,15152,2204886089,2217029878,2223596909,2152393728,2177174034,2185089709,2184472694,2151127049,3257,2,16,8293
1345331739,5809,69.0800018310546900,22.9811000823974600,35.2717018127441400,252.4658966064453000,71.5508728027343800,22.9569091796875000,27.9634895324707030,74,133,96,88,58,15144,2209258477,2221203830,2227092260,2152996489,2180413997,2188526902,2187106816,2151480886,2823,2,16,21949
1345331794,5809,67.4300003051757800,22.9995994567871100,35.2722015380859400,253.6080017089843800,70.6709594726562500,22.9840698242187500,27.9040794372558600,75,135,93,87,59,15141,2215501760,2228202614,2234286299,2153870848,2184093147,2192770934,2190659702,2151948754,2623,2,16,17210
1345331872,5808,65.0599975585937500,23.0387992858886720,35.2747001647949200,254.1768035888672000,69.1764678955078100,23.0301990509033200,27.8613700866699220,73,135,95,87,58,15132,2224683885,2236833883,2241785014,2155036397,2190285558,2199315629,2195655314,2152598674,3137,2,16,45471
1345331927,5810,62.8499984741210940,23.2521991729736330,35.2804985046386700,255.1488952636718800,63.4527282714843750,23.2069492340087900,27.7497005462646500,71,136,96,88,54,15125,2235034953,2247275821,2251754230,2156336850,2197033444,2206605504,2201336137,2153352164,222,2,15,31438
1345331982,5807,61.0499992370605500,23.5365009307861330,35.2420997619628900,255.9201049804687500,55.0034904479980500,23.4681205749511720,27.6135196685791000,72,137,96,87,62,15112,2241658496,2253166774,2256313334,2157057545,2203008173,2212595977,2205595264,2153911826,830,3,15,38235
1345332070,5806,59.7099990844726560,23.6490001678466800,35.2383003234863300,256.3452148437500000,49.6307487487793000,23.6343593597412100,27.5296306610107420,71,138,100,89,56,15094,2251269714,2263312694,2266031122,2158211465,2210241920,2220363108,2211621083,2154696018,1191,3,15,56607
1345332203,5804,57.2200012207031250,24.0599002838134770,35.2239990234375000,255.0171966552734400,37.1164093017578100,24.0220909118652340,27.4316902160644530,64,138,99,88,58,15111,2189686564,2190022116,2187193801,2151278637,2174170358,2174914020,2169676452,2149764946,2124,2,16,16734
1345332291,5808,55.5499992370605500,24.1718006134033200,35.2299995422363300,254.0030975341797000,32.1830902099609400,24.1751594543457030,27.4137992858886720,69,138,96,90,61,15111,2270017746,2281080941,2281647168,2161587849,2228955730,2238476342,2224231488,2156469321,1756,2,15,59362
1345332456,5810,53.8400001525878900,24.3064994812011720,35.2340011596679700,252.4768066406250000,27.8603191375732420,24.3093795776367200,27.4249992370605470,64,138,99,87,56,15109,2279129892,2288544877,2287978733,2163271195,2238727003,2247436260,2230194432,2157318107,1025,2,16,48104
1345332556,5806,52.2400016784668000,24.7084999084472660,35.2467994689941400,250.1067047119140600,16.1639308929443360,24.6730308532714840,27.3824501037597660,63,143,95,90,59,15111,2293530084,2303053824,2302348772,2166052653,2254294317,2262693229,2240978614,2158644525,798,3,15,42027
1345332633,5808,50.3699989318847660,24.9785003662109380,35.2635993957519500,247.3677062988281200,7.3198199272155760,24.9485092163085940,27.3912906646728500,61,139,94,90,54,15115,2307307675,2316508416,2314586569,2168655396,2268935872,2276529627,2250597549,2160114953,1080,2,16,6519
1345332721,5807,48.5200004577636700,25.0977993011474600,35.2569999694824200,245.7832946777343800,2.5007839202880860,25.0988006591796880,27.4006690979003900,59,138,95,87,57,15126,2322486756,2332805193,2331897289,2172719625,2280720932,2288025581,2259262957,2161648868,635,2,16,11426
1345332854,5808,45.8600006103515600,25.2444992065429700,35.2322006225585940,243.7922058105468800,-2.2035779953002930,25.2456398010253900,27.4295501708984380,59,140,97,86,59,15120,2334045101,2344554706,2343963520,2177882249,2292947108,2298139940,2265598893,2163077293,669,2,16,11575
1345332909,5808,43.9000015258789060,25.3868007659912100,35.2304992675781250,242.6726074218750000,-6.8088049888610840,25.3895092010498050,27.4221191406250000,60,135,95,87,59,15117,2336740964,2345491401,2343714953,2180363218,2310190528,2314646619,2277421449,2165079469,533,2,15,46915
1345332964,5809,42.0600013732910160,25.4733009338378900,35.2318000793457000,241.5417938232422000,-9.4213123321533200,25.4711894989013670,27.4397602081298830,58,133,97,87,58,15124,2308954313,2316380772,2314798829,2176765184,2280411126,2281374473,2250086198,2161757193,457,1,16,28478
1345333041,5807,40.3800010681152340,25.6331005096435550,35.2281990051269500,239.8939056396484400,-14.3437099456787110,25.6252002716064450,27.4522991180419920,57,130,95,87,58,15132,2357495817,2368742317,2368349046,2188579565,2333916306,2335379465,2291486272,2167842569,3281,2,16,7486
1345333174,5806,38.3800010681152340,25.8057003021240230,35.2268981933593750,237.5444946289062500,-20.2133903503417970,25.8090400695800780,27.4850807189941400,57,124,93,85,53,15144,2355843017,2365892086,2364271552,2192199195,2344839524,2341871414,2293468598,2168929398,2890,2,16,2644
1345333251,5804,36.0800018310546900,25.8498992919921880,35.2281990051269500,236.8190002441406200,-21.8442897796630860,25.8601608276367200,27.4974594116210940,57,124,96,86,59,15146,2364322688,2374838107,2374030820,2198726226,2361921124,2355547894,2301398811,2170719122,2849,2,16,22684
1345333317,5809,33.8800010681152340,25.8684005737304700,35.2280998229980500,236.2973022460937500,-22.4563102722167970,25.8793506622314450,27.5133590698242200,56,126,96,84,57,15145,2364906057,2373682240,2371788717,2203452717,2380674925,2371396068,2311572251,2173047744,2773,2,16,33693
1345333372,5809,31.9400005340576170,25.8726005554199220,35.2285995483398440,236.1956024169922000,-22.6743507385253900,25.8861904144287100,27.5153903961181640,54,123,95,85,56,15147,2382792201,2393450980,2392798482,2213136256,2404846089,2393015972,2326576219,2176467977,2704,2,16,210